FW1075 Weather Reports


time (UTC)temp
C
wind
direction
speed
KPH
gust
KPH
rain 1hr
cm
rain 24hr
cm
rain mn
cm
humidity
%
barometer
mb
20260905032125 24 337 4.8 9.7 0.00 0.08 0.08 73 1008.8
20260905031121 24 318 4.8 8.0 0.00 0.08 0.08 72 1008.8
20260905030121 24 308 3.2 9.7 0.00 0.08 0.08 72 1008.8
20260905025123 24 296 3.2 4.8 0.00 0.08 0.08 72 1008.7
20260905024123 24 324 3.2 6.4 0.00 0.08 0.08 72 1008.7
20260905023127 24 313 4.8 8.0 0.00 0.08 0.08 71 1008.8
20260905022122 24 298 4.8 9.7 0.00 0.08 0.08 71 1008.8
20260905021143 23 287 3.2 8.0 0.00 0.08 0.08 72 1008.8
20260905020122 23 298 3.2 8.0 0.00 0.08 0.08 73 1008.9
20260905015143 23 306 3.2 4.8 0.00 0.08 0.08 74 1008.9
20260905014121 23 304 1.6 3.2 0.00 0.08 0.08 73 1008.9
20260905013124 24 295 1.6 4.8 0.00 0.08 0.08 72 1008.9
20260905012121 24 315 3.2 4.8 0.00 0.08 0.08 70 1008.8
20260905011143 24 319 1.6 4.8 0.00 0.08 0.08 69 1008.8
20260905010121 25 275 3.2 4.8 0.00 0.08 0.08 68 1008.8
20260905005142 25 314 3.2 6.4 0.00 0.08 0.08 67 1008.8
20260905004148 25 299 3.2 6.4 0.00 0.08 0.08 67 1008.8
20260905003122 25 315 3.2 6.4 0.00 0.08 0.08 66 1008.7
20260905002121 25 317 3.2 6.4 0.00 0.08 0.08 65 1008.8
20260905001123 25 299 1.6 6.4 0.00 0.08 0.08 64 1008.6
20260905000126 26 281 1.6 8.0 0.00 0.08 0.08 62 1008.6
20260904235121 26 353 3.2 6.4 0.00 0.08 0.08 61 1008.6
20260904234121 26 298 6.4 11.3 0.00 0.08 0.08 61 1008.7
20260904233121 26 294 4.8 8.0 0.00 0.08 0.08 61 1008.5
20260904232146 26 312 4.8 11.3 0.00 0.08 0.08 61 1008.5
20260904231144 27 291 3.2 6.4 0.00 0.08 0.08 62 1008.4
20260904230121 27 310 4.8 9.7 0.00 0.08 0.08 60 1008.4
20260904225122 27 324 4.8 9.7 0.00 0.08 0.08 59 1008.5
20260904224148 27 300 6.4 12.9 0.00 0.08 0.08 59 1008.6
20260904223123 28 328 6.4 12.9 0.00 0.08 0.08 58 1008.4
20260904222122 28 302 4.8 8.0 0.00 0.08 0.08 60 1008.5
20260904221123 28 290 4.8 8.0 0.00 0.08 0.08 59 1008.4
20260904220127 28 308 6.4 11.3 0.00 0.08 0.08 58 1008.4
20260904215128 29 303 6.4 11.3 0.00 0.08 0.08 56 1008.2
20260904214122 30 347 8.0 12.9 0.00 0.08 0.08 54 1008.2
20260904213121 30 320 6.4 11.3 0.00 0.08 0.08 54 1008.1
20260904212125 30 313 6.4 11.3 0.00 0.08 0.08 54 1008.2
20260904211121 31 326 8.0 19.3 0.00 0.08 0.08 52 1008.4
20260904210128 31 308 6.4 11.3 0.00 0.08 0.08 51 1008.4
20260904205121 31 332 8.0 14.5 0.00 0.08 0.08 51 1008.4
20260904204123 32 336 6.4 12.9 0.00 0.08 0.08 51 1008.4
20260904203124 32 299 6.4 9.7 0.00 0.08 0.08 51 1008.4
20260904202121 32 300 4.8 12.9 0.00 0.08 0.08 52 1008.5
20260904201125 32 287 6.4 11.3 0.00 0.08 0.08 53 1008.7
20260904200121 32 277 4.8 9.7 0.00 0.08 0.08 53 1008.7
20260904195125 32 314 6.4 9.7 0.00 0.08 0.08 51 1008.7
20260904194121 32 285 4.8 9.7 0.00 0.08 0.08 54 1008.8
20260904193122 31 323 6.4 11.3 0.00 0.08 0.08 56 1008.9
20260904192145 32 304 4.8 9.7 0.00 0.08 0.08 53 1009.1
20260904191121 32 326 8.0 12.9 0.00 0.08 0.08 53 1009.2
20260904190125 32 306 8.0 16.1 0.00 0.08 0.08 54 1009.2
20260904185144 31 323 6.4 11.3 0.00 0.08 0.08 54 1009.0
20260904184124 31 289 6.4 11.3 0.00 0.08 0.08 56 1009.1
20260904183122 30 340 6.4 11.3 0.00 0.08 0.08 57 1009.2
20260904182122 31 299 6.4 11.3 0.00 0.08 0.08 56 1009.2
20260904181125 31 285 6.4 12.9 0.00 0.08 0.08 56 1009.2
20260904180128 31 5 8.0 11.3 0.00 0.08 0.08 55 1009.2
20260904180121 31 7 8.0 11.3 0.00 0.08 0.08 55 1009.2
20260904175121 31 303 8.0 14.5 0.00 0.08 0.08 54 1009.2
20260904174121 31 336 8.0 14.5 0.00 0.08 0.08 54 1009.2
20260904173124 31 322 8.0 14.5 0.00 0.08 0.08 54 1009.1
20260904172121 31 309 9.7 17.7 0.00 0.08 0.08 57 1009.2
20260904171122 31 307 8.0 20.9 0.00 0.08 0.08 58 1009.2
20260904170121 31 311 8.0 14.5 0.00 0.08 0.08 57 1009.2
20260904165125 31 329 8.0 16.1 0.00 0.08 0.08 58 1009.2
20260904164142 31 304 8.0 12.9 0.00 0.08 0.08 57 1009.2
20260904163123 31 329 8.0 16.1 0.00 0.08 0.08 59 1009.2
20260904162122 30 319 8.0 14.5 0.00 0.08 0.08 60 1009.4
20260904161124 30 4 6.4 12.9 0.00 0.08 0.08 61 1009.5
20260904160124 30 317 8.0 12.9 0.00 0.08 0.08 61 1009.5
20260904155127 30 322 8.0 11.3 0.00 0.08 0.08 63 1009.5
20260904155121 30 323 8.0 11.3 0.00 0.08 0.08 63 1009.5
20260904154121 30 315 6.4 11.3 0.00 0.08 0.08 65 1009.7
20260904153126 30 301 9.7 12.9 0.00 0.08 0.08 64 1009.8
20260904152142 30 330 8.0 14.5 0.00 0.08 0.08 65 1010.0
20260904151125 29 289 8.0 14.5 0.00 0.08 0.08 66 1009.8
20260904150122 30 280 6.4 14.5 0.00 0.08 0.08 69 1009.8
20260904145122 29 306 6.4 14.5 0.00 0.08 0.08 70 1009.8
20260904144122 28 316 6.4 11.3 0.00 0.08 0.08 73 1009.9
20260904143124 28 314 8.0 14.5 0.00 0.08 0.08 75 1009.9
20260904142122 28 4 6.4 12.9 0.00 0.08 0.08 78 1009.8
20260904141122 27 18 8.0 14.5 0.00 0.08 0.08 78 1009.6
20260904140123 27 343 6.4 11.3 0.00 0.08 0.08 79 1009.6
20260904135125 27 310 8.0 14.5 0.00 0.08 0.08 81 1009.5
20260904134122 27 332 6.4 11.3 0.00 0.08 0.08 82 1009.5
20260904133120 26 310 6.4 11.3 0.00 0.08 0.08 83 1009.4
20260904132120 26 9 6.4 11.3 0.00 0.08 0.08 83 1009.5
20260904131141 26 350 4.8 11.3 0.00 0.08 0.08 86 1009.4
20260904130142 26 307 9.7 14.5 0.00 0.08 0.08 87 1009.4
20260904125141 25 334 8.0 11.3 0.00 0.08 0.08 88 1009.2
20260904124120 26 28 6.4 9.7 0.00 0.08 0.08 88 1009.4
20260904123124 25 358 6.4 12.9 0.00 0.08 0.08 91 1009.2
20260904122120 25 356 6.4 12.9 0.03 0.08 0.08 93 1009.2
20260904121120 25 13 8.0 16.1 0.03 0.08 0.08 93 1009.2
20260904120121 25 13 6.4 11.3 0.03 0.08 0.08 95 1009.2
20260904115120 25 282 4.8 11.3 0.03 0.08 0.08 98 1009.4
20260904114120 24 309 4.8 11.3 0.03 0.08 0.08 99 1009.2
20260904113120 24 281 4.8 8.0 0.03 0.08 0.08 99 1009.0
20260904112144 23 325 3.2 4.8 0.00 0.05 0.05 99 1008.9
20260904111120 23 320 3.2 8.0 0.00 0.05 0.05 99 1008.8
20260904110143 23 316 3.2 6.4 0.00 0.05 0.05 99 1008.8
20260904105123 22 317 3.2 8.0 0.00 0.05 0.05 99 1008.8
20260904104141 22 319 3.2 6.4 0.00 0.05 0.05 99 1008.7
20260904103143 22 295 3.2 6.4 0.00 0.05 0.05 99 1008.6
20260904102124 22 293 3.2 6.4 0.00 0.05 0.05 99 1008.7
20260904101122 22 281 3.2 4.8 0.00 0.05 0.05 99 1008.5
20260904100122 22 345 0.0 1.6 0.00 0.05 0.05 99 1008.5
20260904095124 22 270 0.0 0.0 0.00 0.05 0.05 99 1008.5
20260904094121 22 203 0.0 0.0 0.00 0.05 0.05 99 1008.2
20260904093122 22 180 0.0 0.0 0.00 0.05 0.05 99 1008.2
20260904092126 22 11 0.0 1.6 0.00 0.05 0.05 99 1008.1
20260904091122 22 270 0.0 1.6 0.00 0.05 0.05 99 1008.2
20260904090122 22 238 0.0 3.2 0.00 0.05 0.05 99 1008.2
20260904085142 22 255 0.0 3.2 0.00 0.05 0.05 99 1008.2
20260904084121 23 307 1.6 4.8 0.00 0.05 0.05 99 1008.2
20260904083121 23 280 0.0 3.2 0.00 0.05 0.05 99 1008.4
20260904082145 23 322 1.6 3.2 0.00 0.05 0.05 99 1008.5
20260904081121 23 338 0.0 0.0 0.00 0.05 0.05 99 1008.6
20260904080142 23 268 0.0 3.2 0.05 0.08 0.05 99 1008.6
20260904075123 23 252 3.2 4.8 0.05 0.08 0.05 99 1008.2
20260904074123 23 328 0.0 1.6 0.05 0.08 0.05 99 1007.9
20260904073121 23 104 1.6 3.2 0.05 0.10 0.05 99 1007.8
20260904072143 24 310 3.2 4.8 0.05 0.10 0.05 99 1007.9
20260904071122 25 350 4.8 11.3 0.05 0.15 0.05 99 1008.2
20260904070124 25 323 4.8 14.5 0.00 0.13 0.00 96 1008.2
20260904065126 25 295 4.8 11.3 0.00 0.15 0.00 94 1008.6
20260904064123 25 326 3.2 6.4 0.00 0.18 0.00 96 1008.6
20260904063122 25 319 1.6 4.8 0.00 0.18 0.00 97 1008.4
20260904062143 25 11 0.0 1.6 0.00 0.18 0.00 98 1008.5
20260904061122 25 0 0.0 1.6 0.00 0.18 0.00 99 1008.5
20260904060122 25 290 0.0 3.2 0.00 0.20 0.00 99 1008.5
20260904055125 25 252 1.6 6.4 0.00 0.20 0.00 99 1008.7
20260904054146 25 255 0.0 3.2 0.00 0.23 0.00 99 1009.1
20260904053122 25 262 0.0 3.2 0.00 0.23 0.00 99 1009.2
20260904052121 25 233 1.6 3.2 0.00 0.28 0.00 99 1009.2
20260904051121 25 203 0.0 0.0 0.00 0.41 0.00 98 1009.2
20260904050122 25 184 0.0 3.2 0.00 0.43 0.00 98 1009.5
20260904045121 25 226 0.0 3.2 0.00 0.43 0.00 98 1009.5
20260904044121 25 249 1.6 4.8 0.00 0.46 0.00 97 1009.7
20260904043122 25 240 1.6 4.8 0.00 0.46 0.00 97 1009.9
20260904042126 25 205 1.6 8.0 0.00 0.46 0.00 97 1010.0
20260904041123 25 258 1.6 4.8 0.00 0.46 0.00 97 1010.0
20260904040123 25 254 3.2 6.4 0.00 0.46 0.00 97 1010.0
20260904035126 25 248 0.0 4.8 0.00 0.46 0.46 97 1010.0
20260904034122 25 196 1.6 3.2 0.00 0.46 0.46 96 1009.8
20260904033124 25 233 1.6 4.8 0.00 0.46 0.46 96 1009.7